"2009-06-12 00:00:00",967985,2.999,186.8,12.26,0.607,15.88,106.5485,16.04,17.02,44.1,0,110.7,13.25,16.85,148.8
"2009-06-12 00:00:30",967986,3.34,156.9,5.126,0.322,15.77,106.5403,16.02,17.01,45.54,0,110.7,13.25,16.82,118.9
"2009-06-12 00:01:00",967987,2.874,157.7,7.595,0.216,15.75,106.528,15.99,17,46.39,0,110.6,13.25,16.79,119.7
"2009-06-12 00:01:30",967988,3.529,169.7,9.07,0.487,15.98,106.5159,15.95,16.98,46.1,0,110.6,13.25,16.76,131.7
"2009-06-12 00:02:00",967989,3.772,163.9,6.313,0.261,16.03,106.5159,15.95,16.96,45.17,0,110.7,13.25,16.76,125.9
"2009-06-12 00:02:30",967990,3.819,153.3,4.563,0.2,15.94,106.5159,15.95,16.95,45.5,0,110.6,13.25,16.76,115.3
"2009-06-12 00:03:00",967991,3.132,153.7,5.554,0.195,15.87,106.5153,15.95,16.95,46.96,0,110.6,13.25,16.76,115.7
"2009-06-12 00:03:30",967992,3.178,154.9,6.216,0.199,15.84,106.5102,15.94,16.94,47.13,0,110.6,13.25,16.75,116.9
"2009-06-12 00:04:00",967993,3.07,143.1,4.516,0.145,15.8,106.5052,15.93,16.94,47.88,0,110.6,13.25,16.73,105.1
"2009-06-12 00:04:30",967994,3.028,137.7,4.953,0.284,15.84,106.4984,15.91,16.93,47.88,0,110.6,13.25,16.72,99.7
"2009-06-12 00:05:00",967995,3.57,142.2,6.327,0.24,15.9,106.4849,15.88,16.93,47.49,0,110.6,13.25,16.68,104.2
"2009-06-12 00:05:30",967996,3.524,154.9,4.1,0.391,15.95,106.4821,15.87,16.93,47.18,0,110.6,13.25,16.68,116.9
"2009-06-12 00:06:00",967997,3.793,148.7,2.864,0.15,15.78,106.483,15.87,16.94,47.57,0,110.6,13.25,16.68,110.7
"2009-06-12 00:06:30",967998,3.47,151.2,2.983,0.179,15.85,106.4863,15.88,16.92,47.98,0,110.6,13.25,16.69,113.2
"2009-06-12 00:07:00",967999,3.118,152.2,5.295,0.307,15.88,106.4896,15.89,16.92,47.92,0,110.6,13.25,16.69,114.2
"2009-06-12 00:07:30",968000,3.507,161.5,6.436,0.237,16.05,106.4918,15.89,16.93,46.86,0,110.6,13.25,16.70,123.5
"2009-06-12 00:08:00",968001,3.801,164.8,1.855,0.189,16.05,106.4859,15.88,16.91,45.61,0,110.6,13.25,16.69,126.8
"2009-06-12 00:08:30",968002,3.11,163.8,2.202,0.277,15.92,106.4785,15.86,16.9,45.98,0,110.6,13.26,16.67,125.8
"2009-06-12 00:09:00",968003,2.904,162.3,2.764,0.143,15.96,106.4693,15.84,16.9,45.59,0,110.6,13.26,16.64,124.3
"2009-06-12 00:09:30",968004,2.587,163.3,3.593,0.088,15.84,106.4711,15.84,16.89,45.58,0,110.6,13.26,16.65,125.3
"2009-06-12 00:10:00",968005,2.821,167.6,6.126,0.197,15.49,106.4786,15.86,16.88,45.93,0,110.6,13.26,16.67,129.6
"2009-06-12 00:10:30",968006,2.612,158.8,8.36,0.31,15.21,106.4825,15.87,16.88,46.47,0,110.6,13.26,16.68,120.8
"2009-06-12 00:11:00",968007,3.131,151.1,2.624,0.245,15.21,106.4831,15.87,16.88,46.78,0,110.6,13.26,16.68,113.1
"2009-06-12 00:11:30",968008,2.688,152.8,4.549,0.294,15.45,106.4831,15.87,16.87,46.29,0,110.6,13.26,16.68,114.8
"2009-06-12 00:12:00",968009,3.822,143.2,4.284,0.195,15.18,106.4843,15.87,16.87,46.59,0,110.6,13.26,16.68,105.2
"2009-06-12 00:12:30",968010,3.609,146.5,3.563,0.258,15.34,106.4843,15.87,16.88,46.9,0,110.6,13.26,16.68,108.5
"2009-06-12 00:13:00",968011,3.387,149.8,5.482,0.266,15.46,106.4843,15.87,16.89,46.27,0,110.6,13.26,16.68,111.8
"2009-06-12 00:13:30",968012,3.799,142.9,2.663,0.266,15.38,106.4843,15.87,16.87,47.07,0,110.6,13.26,16.68,104.9
"2009-06-12 00:14:00",968013,3.389,147,1.418,0.152,15.51,106.4843,15.87,16.88,47.35,0,110.6,13.26,16.68,109.0
"2009-06-12 00:14:30",968014,3.596,147.1,4.363,0.43,15.47,106.4843,15.87,16.89,47.59,0,110.6,13.26,16.68,109.1
"2009-06-12 00:15:00",968015,3.695,153.2,2.227,0.124,15.38,106.4843,15.87,16.88,47.77,0,110.6,13.26,16.68,115.2
"2009-06-12 00:15:30",968016,4.168,149.8,4.765,0.363,15.42,106.4843,15.87,16.89,47.71,0,110.6,13.26,16.68,111.8
"2009-06-12 00:16:00",968017,4.175,141.2,1.963,0.123,15.43,106.4843,15.87,16.88,47.35,0,110.6,13.26,16.68,103.2
"2009-06-12 00:16:30",968018,3.79,141.8,4.29,0.237,15.36,106.4843,15.87,16.88,47.06,0,110.6,13.26,16.68,103.8
"2009-06-12 00:17:00",968019,3.911,146.9,2.665,0.218,15.16,106.4843,15.87,16.87,47.4,0,110.6,13.26,16.68,108.9
"2009-06-12 00:17:30",968020,3.65,143.8,4.865,0.262,15.1,106.4843,15.87,16.88,47.65,0,110.6,13.26,16.68,105.8
"2009-06-12 00:18:00",968021,3.909,134.4,1.442,0.199,14.99,106.4843,15.87,16.88,47.76,0,110.6,13.26,16.68,96.4
"2009-06-12 00:18:30",968022,3.808,136.4,3.1,0.168,14.96,106.4843,15.87,16.88,47.99,0,110.6,13.26,16.68,98.4
"2009-06-12 00:19:00",968023,4.167,134.6,1.703,0.156,14.92,106.4843,15.87,16.88,48.07,0,110.6,13.26,16.68,96.6
"2009-06-12 00:19:30",968024,3.309,139.8,2.881,0.26,14.87,106.4843,15.87,16.9,48.17,0,110.6,13.26,16.68,101.8
"2009-06-12 00:20:00",968025,3.268,144.1,3.215,0.111,14.92,106.4843,15.87,16.9,47.93,0,110.6,13.26,16.68,106.1
"2009-06-12 00:20:30",968026,2.997,136.5,4.213,0.156,15.07,106.4857,15.88,16.9,47.31,0,110.6,13.26,16.68,98.5
"2009-06-12 00:21:00",968027,3.817,132.7,2.449,0.391,15.04,106.5009,15.92,16.9,47.09,0,110.6,13.27,16.72,94.7
"2009-06-12 00:21:30",968028,3.783,130.3,1.411,0.25,14.95,106.5065,15.93,16.92,47.47,0,110.6,13.26,16.74,92.3
"2009-06-12 00:22:00",968029,3.858,129.4,1.966,0.226,14.91,106.5172,15.96,16.93,47.87,0,110.6,13.26,16.77,91.4
"2009-06-12 00:22:30",968030,4.063,129.3,2.226,0.27,14.84,106.5181,15.96,16.93,48.18,0,110.6,13.26,16.77,91.3
"2009-06-12 00:23:00",968031,4.044,129.7,2.063,0.158,14.78,106.5181,15.96,16.93,48.19,0,110.6,13.26,16.77,91.7
"2009-06-12 00:23:30",968032,4.218,131.2,3.864,0.224,14.78,106.5181,15.96,16.95,48.19,0,110.6,13.26,16.77,93.2
"2009-06-12 00:24:00",968033,4.609,139.5,4.034,0.392,14.76,106.5181,15.96,16.98,48.83,0,110.6,13.26,16.77,101.5
"2009-06-12 00:24:30",968034,4.705,141.7,1.938,0.219,14.77,106.5192,15.96,16.98,49.09,0,110.6,13.26,16.77,103.7
"2009-06-12 00:25:00",968035,4.367,140.8,4.077,0.226,14.79,106.5285,15.99,16.97,49.33,0,110.6,13.26,16.79,102.8
"2009-06-12 00:25:30",968036,4.924,136.1,3.28,0.276,14.91,106.5428,16.02,17,49.64,0,110.6,13.26,16.83,98.1
"2009-06-12 00:26:00",968037,5.194,138.7,3.099,0.307,15.05,106.5507,16.04,16.99,49.97,0,110.6,13.26,16.85,100.7
"2009-06-12 00:26:30",968038,3.109,152,12.91,0.699,15.32,106.5518,16.05,17,49.09,0,110.6,13.26,16.85,114.0
"2009-06-12 00:27:00",968039,3.056,153.2,8.99,0.423,15.22,106.5516,16.05,17.01,48.21,0,110.6,13.26,16.85,115.2
"2009-06-12 00:27:30",968040,2.804,168.6,17.74,0.43,15.5,106.5504,16.04,16.99,47,0,110.6,13.26,16.85,130.6
"2009-06-12 00:28:00",968041,3.363,162.4,10.73,0.666,15.39,106.551,16.04,17.01,46.02,0,110.6,13.26,16.85,124.4
"2009-06-12 00:28:30",968042,3.05,154.8,13.84,0.534,15.25,106.5513,16.05,17.02,46.84,0,110.6,13.26,16.85,116.8
"2009-06-12 00:29:00",968043,4.079,151,4.962,0.361,14.95,106.5518,16.05,17.02,47.43,0,110.6,13.26,16.85,113.0
"2009-06-12 00:29:30",968044,5.253,143.6,2.982,0.279,14.74,106.5518,16.05,17.03,50.29,0,110.6,13.26,16.85,105.6
"2009-06-12 00:30:00",968045,5.135,146.1,1.214,0.159,14.8,106.5516,16.05,17.03,50.54,0,110.6,13.26,16.85,108.1
"2009-06-12 00:30:30",968046,5.005,150.5,4.052,0.235,14.94,106.5504,16.04,17.01,50.2,0,110.6,13.26,16.85,112.5
"2009-06-12 00:31:00",968047,5.302,162.1,5.153,0.325,15.03,106.5473,16.04,17.03,49.93,0,110.6,13.26,16.84,124.1
"2009-06-12 00:31:30",968048,4.921,147.3,7.247,0.259,14.89,106.5406,16.02,17.03,50.44,0,110.6,13.26,16.83,109.3
"2009-06-12 00:32:00",968049,5.417,154.6,6.552,0.295,15.05,106.5383,16.01,17.02,50.22,0,110.6,13.26,16.82,116.6
"2009-06-12 00:32:30",968050,5.218,150.8,10.2,0.377,15.04,106.5254,15.98,17.02,49.86,0,110.6,13.26,16.79,112.8
"2009-06-12 00:33:00",968051,5.218,150.6,3.504,0.296,15.28,106.5195,15.96,17.01,50.13,0,110.6,13.26,16.77,112.6
"2009-06-12 00:33:30",968052,5.138,154.4,3.806,0.257,15.49,106.5181,15.96,17.02,49.84,0,110.6,13.26,16.77,116.4
"2009-06-12 00:34:00",968053,5.883,158.5,4.847,0.287,15.78,106.5181,15.96,17.02,48.54,0,110.6,13.26,16.77,120.5
"2009-06-12 00:34:30",968054,5.324,149.4,3.305,0.602,15.78,106.5181,15.96,17.01,48.07,0,110.6,13.26,16.77,111.4
"2009-06-12 00:35:00",968055,4.69,157.1,5.602,0.18,15.72,106.5181,15.96,17,47.86,0,110.6,13.26,16.77,119.1
"2009-06-12 00:35:30",968056,4.56,154.7,4.563,0.202,15.57,106.5181,15.96,16.99,47.5,0,110.6,13.26,16.77,116.7
"2009-06-12 00:36:00",968057,5.448,156.7,4.428,0.283,15.6,106.5153,15.95,16.99,47.71,0,110.6,13.26,16.76,118.7
"2009-06-12 00:36:30",968058,5.179,158.5,2.5,0.246,15.46,106.5065,15.93,16.96,47.94,0,110.6,13.26,16.74,120.5
"2009-06-12 00:37:00",968059,4.788,146.1,5.768,0.268,15.31,106.4975,15.91,16.96,49.04,0,110.6,13.26,16.71,108.1
"2009-06-12 00:37:30",968060,5.24,153.9,3.595,0.188,15.48,106.4846,15.87,16.94,48.69,0,110.6,13.26,16.68,115.9
"2009-06-12 00:38:00",968061,5.116,152.3,3.526,0.355,15.15,106.4843,15.87,16.94,49.32,0,110.6,13.26,16.68,114.3
"2009-06-12 00:38:30",968062,5.101,153,5.901,0.132,15.16,106.4843,15.87,16.95,50.39,0,110.6,13.26,16.68,115.0
"2009-06-12 00:39:00",968063,5.46,151.6,2.978,0.214,15.05,106.4843,15.87,16.94,50.04,0,110.6,13.26,16.68,113.6
"2009-06-12 00:39:30",968064,5.478,143.7,2.276,0.172,14.9,106.4843,15.87,16.92,50.12,0,110.6,13.26,16.68,105.7
"2009-06-12 00:40:00",968065,5.631,150.2,2.446,0.16,15.02,106.4829,15.87,16.92,50.1,0,110.6,13.26,16.68,112.2
"2009-06-12 00:40:30",968066,5.6,153.3,2.693,0.262,14.97,106.477,15.85,16.89,50.59,0,110.6,13.26,16.66,115.3
"2009-06-12 00:41:00",968067,5.377,156.9,4.359,0.301,15.07,106.4637,15.82,16.89,50.45,0,110.6,13.26,16.63,118.9
"2009-06-12 00:41:30",968068,4.647,164.9,5.848,0.308,15.09,106.4578,15.81,16.89,49.85,0,110.6,13.26,16.61,126.9
"2009-06-12 00:42:00",968069,5.039,148.5,3.44,0.163,14.94,106.4539,15.8,16.87,50.31,0,110.6,13.26,16.60,110.5
"2009-06-12 00:42:30",968070,5.133,148.6,1.505,0.083,14.86,106.453,15.79,16.88,51.11,0,110.6,13.26,16.60,110.6
"2009-06-12 00:43:00",968071,4.867,148.1,2.649,0.162,14.84,106.4536,15.79,16.89,51.29,0,110.6,13.26,16.60,110.1
"2009-06-12 00:43:30",968072,5.039,144.9,2.18,0.197,14.87,106.4511,15.79,16.89,51.17,0,110.6,13.26,16.60,106.9
"2009-06-12 00:44:00",968073,4.551,147,4.492,0.293,15.1,106.4516,15.79,16.88,51.01,0,110.6,13.26,16.60,109.0
"2009-06-12 00:44:30",968074,4.536,140.4,1.817,0.341,15.05,106.4522,15.79,16.86,49.36,0,110.6,13.26,16.60,102.4
"2009-06-12 00:45:00",968075,4.458,141.1,1.439,0.137,14.9,106.4567,15.8,16.87,50.16,0,110.6,13.26,16.61,103.1
"2009-06-12 00:45:30",968076,4.303,143.8,1.866,0.11,14.93,106.4581,15.81,16.87,49.77,0,110.6,13.26,16.61,105.8
"2009-06-12 00:46:00",968077,4.611,145.9,2.199,0.218,15.02,106.4654,15.83,16.86,49.63,0,110.6,13.26,16.63,107.9
"2009-06-12 00:46:30",968078,4.845,147.1,2.017,0.127,15.19,106.4713,15.84,16.86,49.53,0,110.6,13.26,16.65,109.1
"2009-06-12 00:47:00",968079,4.598,148.7,1.465,0.273,15.43,106.473,15.84,16.88,49.5,0,110.6,13.26,16.65,110.7
"2009-06-12 00:47:30",968080,4.465,143.4,2.565,0.175,15.41,106.4756,15.85,16.87,49.19,0,110.6,13.26,16.66,105.4
"2009-06-12 00:48:00",968081,4.492,145.3,2.514,0.286,15.39,106.477,15.85,16.88,50.29,0,110.6,13.26,16.66,107.3
"2009-06-12 00:48:30",968082,4.669,146.4,1.459,0.172,15.34,106.4758,15.85,16.87,50.63,0,110.6,13.26,16.66,108.4
"2009-06-12 00:49:00",968083,4.637,149,1.565,0.128,15.35,106.4722,15.84,16.87,50.17,0,110.6,13.26,16.65,111.0
"2009-06-12 00:49:30",968084,4.91,146.3,1.297,0.136,15.31,106.4682,15.83,16.88,50.61,0,110.6,13.26,16.64,108.3
"2009-06-12 00:50:00",968085,4.671,149.3,1.074,0.132,15.25,106.4604,15.81,16.87,51.24,0,110.6,13.26,16.62,111.3
"2009-06-12 00:50:30",968086,4.575,147.7,1.607,0.123,15.32,106.4519,15.79,16.86,51.22,0,110.6,13.26,16.60,109.7
"2009-06-12 00:51:00",968087,4.565,148,1.391,0.105,15.28,106.4508,15.79,16.86,50.99,0,110.6,13.26,16.59,110.0
"2009-06-12 00:51:30",968088,4.464,146.4,1.903,0.106,15.54,106.4505,15.79,16.87,50.92,0,110.6,13.26,16.59,108.4
"2009-06-12 00:52:00",968089,4.189,150.6,3.705,0.221,15.76,106.4505,15.79,16.84,49.99,0,110.6,13.27,16.59,112.6
"2009-06-12 00:52:30",968090,4.101,145.4,11.84,0.451,15.72,106.4505,15.79,16.83,47.87,0,110.6,13.27,16.59,107.4
"2009-06-12 00:53:00",968091,4.659,149,1.861,0.299,15.49,106.4505,15.79,16.85,48.27,0,110.6,13.27,16.59,111.0
"2009-06-12 00:53:30",968092,4.927,149.7,2.391,0.176,15.36,106.4505,15.79,16.84,49.56,0,110.6,13.27,16.59,111.7
"2009-06-12 00:54:00",968093,4.731,145.2,4.092,0.261,15.36,106.4505,15.79,16.84,49.82,0,110.6,13.27,16.59,107.2
"2009-06-12 00:54:30",968094,4.602,151,2.853,0.225,15.43,106.4502,15.79,16.84,50.23,0,110.6,13.27,16.59,113.0
"2009-06-12 00:55:00",968095,4.483,149.7,3.81,0.201,15.66,106.4477,15.78,16.83,50.28,0,110.6,13.27,16.59,111.7
"2009-06-12 00:55:30",968096,4.356,155.9,1.135,0.084,15.71,106.4421,15.77,16.82,49.92,0,110.6,13.27,16.57,117.9
"2009-06-12 00:56:00",968097,4.233,153.6,2.943,0.173,15.71,106.4345,15.75,16.8,49.74,0,110.6,13.27,16.55,115.6
"2009-06-12 00:56:30",968098,4.318,149.2,3.096,0.21,15.71,106.4255,15.72,16.8,50.89,0,110.6,13.27,16.53,111.2
"2009-06-12 00:57:00",968099,4.006,155,5.506,0.162,15.86,106.4217,15.71,16.81,50.14,0,110.6,13.27,16.52,117.0
"2009-06-12 00:57:30",968100,3.89,151.1,3.705,0.347,15.76,106.4209,15.71,16.79,49.29,0,110.6,13.27,16.52,113.1
"2009-06-12 00:58:00",968101,4.334,151,2.736,0.202,15.77,106.4224,15.72,16.8,49.06,0,110.6,13.27,16.52,113.0
"2009-06-12 00:58:30",968102,4.421,147.6,1.826,0.139,15.58,106.4233,15.72,16.8,49.42,0,110.6,13.27,16.52,109.6
"2009-06-12 00:59:00",968103,4.604,146.1,1.783,0.083,15.57,106.4257,15.72,16.78,49.67,0,110.6,13.27,16.53,108.1
"2009-06-12 00:59:30",968104,4.408,147.1,4.192,0.215,15.62,106.4287,15.73,16.77,49.68,0,110.6,13.27,16.54,109.1
"2009-06-12 01:00:00",968105,4.879,151,3.822,0.152,15.51,106.4344,15.75,16.76,49.55,0,110.6,13.27,16.55,113.0
"2009-06-12 01:00:30",968106,4.767,147.1,6.492,0.285,15.38,106.4365,15.75,16.76,49.73,0,110.6,13.27,16.56,109.1
"2009-06-12 01:01:00",968107,4.25,166,5.04,0.311,15.77,106.438,15.75,16.77,48.92,0,110.6,13.27,16.56,128.0
"2009-06-12 01:01:30",968108,4.687,149.6,8.02,0.417,15.7,106.4396,15.76,16.75,48.89,0,110.6,13.26,16.57,111.6
"2009-06-12 01:02:00",968109,4.745,150.1,4.252,0.367,15.75,106.435,15.75,16.75,50.27,0,110.6,13.27,16.55,112.1
"2009-06-12 01:02:30",968110,5.449,144.9,1.666,0.131,15.78,106.434,15.74,16.75,50.71,0,110.6,13.26,16.55,106.9
"2009-06-12 01:03:00",968111,5.404,141.4,2.133,0.232,15.86,106.4308,15.74,16.74,50.92,0,110.6,13.26,16.54,103.4
"2009-06-12 01:03:30",968112,5.209,142.1,1.868,0.15,15.95,106.4187,15.71,16.74,50.89,0,110.6,13.26,16.51,104.1
"2009-06-12 01:04:00",968113,5.581,140.7,2.807,0.153,15.98,106.4123,15.69,16.74,50.66,0,110.6,13.26,16.50,102.7
"2009-06-12 01:04:30",968114,5.295,138.3,4.1,0.22,16.04,106.4135,15.69,16.73,50.58,0,110.6,13.26,16.50,100.3
"2009-06-12 01:05:00",968115,5.218,140.5,3.287,0.131,16.1,106.4153,15.7,16.72,50.43,0,110.6,13.27,16.50,102.5
"2009-06-12 01:05:30",968116,5.512,143.5,2.011,0.203,16.15,106.418,15.7,16.71,50.28,0,110.6,13.26,16.51,105.5
"2009-06-12 01:06:00",968117,5.646,143.4,1.334,0.128,16.11,106.4105,15.68,16.69,50.11,0,110.6,13.27,16.49,105.4
"2009-06-12 01:06:30",968118,5.612,142.1,1,0.135,16.12,106.3894,15.63,16.68,50.31,0,110.6,13.27,16.44,104.1
"2009-06-12 01:07:00",968119,5.396,140.3,1.163,0.135,16.18,106.3851,15.62,16.67,50.42,0,110.6,13.27,16.43,102.3
"2009-06-12 01:07:30",968120,5.583,140.6,0.579,0.072,16.22,106.3851,15.62,16.67,50.73,0,110.6,13.27,16.43,102.6
"2009-06-12 01:08:00",968121,5.681,140.5,0.99,0.068,16.13,106.3826,15.61,16.65,51.15,0,110.6,13.27,16.42,102.5
"2009-06-12 01:08:30",968122,5.957,138.8,1.039,0.101,16.07,106.3632,15.56,16.64,51.41,0,110.6,13.27,16.37,100.8
"2009-06-12 01:09:00",968123,6.008,139.5,1.599,0.096,16.19,106.3513,15.53,16.62,51.5,0,110.6,13.28,16.34,101.5
"2009-06-12 01:09:30",968124,5.875,138.7,1.813,0.094,16.1,106.3513,15.53,16.61,51.42,0,110.6,13.28,16.34,100.7
"2009-06-12 01:10:00",968125,5.976,137.1,0.916,0.072,16.1,106.3505,15.53,16.6,51.68,0,110.6,13.28,16.34,99.1
"2009-06-12 01:10:30",968126,5.962,136.6,1.284,0.152,16.2,106.3367,15.5,16.58,51.91,0,110.6,13.28,16.30,98.6
"2009-06-12 01:11:00",968127,6.035,136.9,1.938,0.097,16.11,106.3181,15.45,16.56,52.45,0,110.6,13.28,16.25,98.9
"2009-06-12 01:11:30",968128,6.297,133.5,1.848,0.131,16.18,106.3176,15.45,16.55,52.51,0,110.6,13.28,16.25,95.5
"2009-06-12 01:12:00",968129,6.28,133.9,2.21,0.087,16.07,106.3162,15.44,16.51,53.07,0,110.6,13.28,16.25,95.9
"2009-06-12 01:12:30",968130,6.527,134.6,1.092,0.155,16.06,106.2967,15.39,16.52,53.51,0,110.6,13.28,16.20,96.6
"2009-06-12 01:13:00",968131,6.786,135.4,1.095,0.085,16.12,106.2841,15.36,16.51,53.41,0,110.5,13.28,16.17,97.4
"2009-06-12 01:13:30",968132,6.931,134.2,1.446,0.137,16.18,106.2838,15.36,16.48,52.99,0,110.5,13.28,16.17,96.2
"2009-06-12 01:14:00",968133,7.028,133.5,1.486,0.259,16.1,106.2832,15.36,16.45,53.47,0,110.5,13.28,16.16,95.5
"2009-06-12 01:14:30",968134,6.722,138.1,0.885,0.137,16.06,106.2615,15.3,16.44,53.76,0,110.5,13.28,16.11,100.1
"2009-06-12 01:15:00",968135,6.996,135,1.554,0.149,16.09,106.25,15.27,16.42,53.54,0,110.5,13.28,16.08,97.0
"2009-06-12 01:15:30",968136,6.892,131.4,1.007,0.157,16.03,106.2518,15.28,16.39,53.75,0,110.5,13.28,16.08,93.4
"2009-06-12 01:16:00",968137,6.882,131.8,2.601,0.131,16.06,106.2533,15.28,16.39,54.26,0,110.5,13.28,16.09,93.8
"2009-06-12 01:16:30",968138,7.298,133.6,1.027,0.104,16.02,106.2479,15.27,16.36,54.69,0,110.5,13.28,16.07,95.6
"2009-06-12 01:17:00",968139,7.338,134.1,0.865,0.08,15.91,106.2329,15.23,16.36,54.87,0,110.5,13.28,16.03,96.1
"2009-06-12 01:17:30",968140,7.143,134.2,0.739,0.121,15.8,106.2309,15.22,16.34,54.77,0,110.5,13.29,16.03,96.2
"2009-06-12 01:18:00",968141,6.966,131.2,0.858,0.277,15.85,106.2372,15.24,16.33,54.54,0,110.5,13.29,16.05,93.2
"2009-06-12 01:18:30",968142,6.883,130.7,1.169,0.144,15.82,106.2416,15.25,16.32,54.14,0,110.5,13.28,16.06,92.7
"2009-06-12 01:19:00",968143,6.832,130.7,1.274,0.212,15.83,106.2453,15.26,16.29,53.85,0,110.5,13.28,16.07,92.7
"2009-06-12 01:19:30",968144,7.368,131.3,0.602,0.177,15.76,106.242,15.25,16.28,54,0,110.5,13.28,16.06,93.3
"2009-06-12 01:20:00",968145,7.436,131.9,0.583,0.098,15.8,106.2413,15.25,16.27,54.44,0,110.5,13.28,16.06,93.9
"2009-06-12 01:20:30",968146,7.069,129.4,1.97,0.184,15.92,106.2369,15.24,16.25,54.28,0,110.5,13.28,16.04,91.4
"2009-06-12 01:21:00",968147,6.954,129.7,0.681,0.108,15.85,106.2278,15.22,16.25,53.75,0,110.5,13.28,16.02,91.7
"2009-06-12 01:21:30",968148,7.178,131.7,0.591,0.083,15.78,106.2259,15.21,16.26,53.75,0,110.5,13.28,16.02,93.7
"2009-06-12 01:22:00",968149,7.283,131.7,0.636,0.137,15.82,106.2234,15.21,16.23,53.85,0,110.5,13.28,16.01,93.7
"2009-06-12 01:22:30",968150,7.219,133.5,1.674,0.147,15.86,106.2231,15.2,16.23,54.26,0,110.5,13.28,16.01,95.5
"2009-06-12 01:23:00",968151,7.243,135.4,1.085,0.183,15.92,106.2225,15.2,16.22,54.13,0,110.5,13.28,16.01,97.4
"2009-06-12 01:23:30",968152,7.286,135.2,0.815,0.077,16,106.2214,15.2,16.23,53.84,0,110.5,13.29,16.01,97.2
"2009-06-12 01:24:00",968153,7.125,138,0.558,0.066,16.2,106.2208,15.2,16.22,53.99,0,110.5,13.29,16.00,100.0
"2009-06-12 01:24:30",968154,7.196,139.3,0.711,0.056,16.01,106.2186,15.19,16.24,53.9,0,110.5,13.29,16.00,101.3
"2009-06-12 01:25:00",968155,7.125,136.3,2.309,0.095,16.08,106.2186,15.19,16.22,54.07,0,110.5,13.29,16.00,98.3
"2009-06-12 01:25:30",968156,7.147,134,0.962,0.124,16.17,106.2183,15.19,16.21,54.66,0,110.5,13.29,16.00,96.0
"2009-06-12 01:26:00",968157,7.257,136.1,1.076,0.111,16.13,106.2183,15.19,16.23,54.55,0,110.5,13.3,16.00,98.1
"2009-06-12 01:26:30",968158,7.098,134.1,1.301,0.119,16.09,106.2183,15.19,16.22,54.83,0,110.5,13.3,16.00,96.1
"2009-06-12 01:27:00",968159,6.906,134.8,1.295,0.172,16.09,106.2183,15.19,16.21,55.23,0,110.5,13.3,16.00,96.8
"2009-06-12 01:27:30",968160,6.949,136.7,1.586,0.074,16.1,106.2183,15.19,16.2,55.07,0,110.5,13.3,16.00,98.7
"2009-06-12 01:28:00",968161,6.918,136.2,1.607,0.116,16.08,106.2082,15.17,16.21,55.08,0,110.5,13.3,15.97,98.2
"2009-06-12 01:28:30",968162,6.941,137.1,1.438,0.108,16.09,106.1907,15.12,16.2,55.22,0,110.5,13.3,15.93,99.1
"2009-06-12 01:29:00",968163,6.844,137.7,1.481,0.137,16.14,106.1845,15.11,16.18,54.86,0,110.5,13.3,15.91,99.7
"2009-06-12 01:29:30",968164,6.922,139.7,1.466,0.075,16.28,106.1845,15.11,16.18,54.45,0,110.5,13.3,15.91,101.7
"2009-06-12 01:30:00",968165,6.969,141.4,0.709,0.128,16.17,106.1845,15.11,16.16,54.23,0,110.5,13.3,15.91,103.4
"2009-06-12 01:30:30",968166,7.383,141.2,0.64,0.096,16.37,106.1786,15.09,16.15,53.91,0,110.5,13.3,15.90,103.2
"2009-06-12 01:31:00",968167,7.468,140.2,1.088,0.065,16.33,106.1626,15.05,16.14,53.36,0,110.5,13.3,15.85,102.2
"2009-06-12 01:31:30",968168,7.433,138.5,0.798,0.056,16.07,106.1586,15.04,16.13,53.05,0,110.5,13.3,15.84,100.5
"2009-06-12 01:32:00",968169,7.323,138.1,0.818,0.096,16.15,106.1524,15.02,16.11,52.99,0,110.5,13.3,15.83,100.1
"2009-06-12 01:32:30",968170,7.354,137.4,0.599,0.088,16.17,106.1507,15.02,16.11,53.61,0,110.5,13.3,15.82,99.4
"2009-06-12 01:33:00",968171,7.086,138,1.153,0.097,16.29,106.1537,15.03,16.1,53.88,0,110.5,13.3,15.83,100.0
"2009-06-12 01:33:30",968172,7.11,138.3,0.584,0.057,16.36,106.1564,15.03,16.09,53.56,0,110.5,13.3,15.84,100.3
"2009-06-12 01:34:00",968173,6.931,139.2,0.815,0.087,16.36,106.1624,15.05,16.08,53.46,0,110.5,13.3,15.85,101.2
"2009-06-12 01:34:30",968174,6.843,139.8,0.424,0.101,16.36,106.1651,15.06,16.07,53.14,0,110.5,13.3,15.86,101.8
"2009-06-12 01:35:00",968175,6.717,139.5,0.455,0.055,16.18,106.172,15.07,16.07,52.67,0,110.5,13.3,15.88,101.5
"2009-06-12 01:35:30",968176,6.709,139.5,0.952,0.102,16.24,106.1726,15.07,16.06,52.39,0,110.5,13.3,15.88,101.5
"2009-06-12 01:36:00",968177,6.485,138.5,0.995,0.085,16.25,106.1791,15.09,16.06,52.93,0,110.5,13.3,15.90,100.5
"2009-06-12 01:36:30",968178,6.442,138.8,1.059,0.102,16.26,106.1818,15.1,16.07,52.81,0,110.5,13.3,15.90,100.8
"2009-06-12 01:37:00",968179,6.558,137.7,1.976,0.081,16.27,106.1843,15.11,16.06,52.77,0,110.5,13.3,15.91,99.7
"2009-06-12 01:37:30",968180,6.556,137.4,0.715,0.113,16.24,106.1824,15.1,16.04,52.88,0,110.5,13.3,15.90,99.4
"2009-06-12 01:38:00",968181,6.514,137.7,0.507,0.086,16.31,106.1792,15.09,16.05,52.89,0,110.5,13.3,15.90,99.7
"2009-06-12 01:38:30",968182,6.62,137.4,0.565,0.063,16.21,106.1759,15.08,16.06,53.11,0,110.5,13.3,15.89,99.4
"2009-06-12 01:39:00",968183,6.605,138.3,0.654,0.071,16.13,106.1734,15.08,16.06,53.33,0,110.5,13.3,15.88,100.3
"2009-06-12 01:39:30",968184,6.597,137.7,0.276,0.073,16.2,106.1697,15.07,16.05,53.34,0,110.5,13.3,15.87,99.7
"2009-06-12 01:40:00",968185,6.454,138.6,0.769,0.042,16.26,106.1669,15.06,16.05,53.42,0,110.5,13.3,15.86,100.6
"2009-06-12 01:40:30",968186,6.264,137.7,1.746,0.089,16.22,106.1635,15.05,16.06,53.56,0,110.5,13.31,15.86,99.7
"2009-06-12 01:41:00",968187,6.468,138.2,1.13,0.19,16.16,106.159,15.04,16.05,54.2,0,110.5,13.31,15.84,100.2
"2009-06-12 01:41:30",968188,6.928,132.6,4.251,0.211,16.05,106.1553,15.03,16.05,55.2,0,110.5,13.31,15.84,94.6
"2009-06-12 01:42:00",968189,6.735,140.8,2.63,0.176,16.25,106.1531,15.02,16.07,55.18,0,110.5,13.31,15.83,102.8
"2009-06-12 01:42:30",968190,7.004,137.7,3.651,0.196,16.25,106.1528,15.02,16.04,55.19,0,110.5,13.32,15.83,99.7
"2009-06-12 01:43:00",968191,6.924,137.5,3.526,0.207,16.29,106.1528,15.02,16.05,54.74,0,110.5,13.32,15.83,99.5
"2009-06-12 01:43:30",968192,6.779,141.9,0.933,0.072,16.39,106.1528,15.02,16.05,54.32,0,110.5,13.32,15.83,103.9
"2009-06-12 01:44:00",968193,6.678,142.3,1.107,0.098,16.39,106.1528,15.02,16.04,54.2,0,110.5,13.32,15.83,104.3
"2009-06-12 01:44:30",968194,6.599,140.1,1.275,0.126,16.11,106.1528,15.02,16.02,54.71,0,110.5,13.32,15.83,102.1
"2009-06-12 01:45:00",968195,6.474,139.7,1.415,0.179,16.2,106.1528,15.02,16.04,55.37,0,110.5,13.32,15.83,101.7
"2009-06-12 01:45:30",968196,6.48,140.7,2.622,0.082,16.16,106.1517,15.02,16.03,55.46,0,110.5,13.32,15.83,102.7
"2009-06-12 01:46:00",968197,6.632,143.1,2.036,0.169,16.26,106.1472,15.01,16.02,55.49,0,110.5,13.32,15.81,105.1
"2009-06-12 01:46:30",968198,6.559,143.9,1.229,0.157,16.31,106.1415,15,16.01,54.76,0,110.4,13.32,15.80,105.9
"2009-06-12 01:47:00",968199,6.646,143.5,1.034,0.131,16.34,106.1418,15,16.01,54.77,0,110.5,13.32,15.80,105.5
"2009-06-12 01:47:30",968200,6.606,141.8,1.396,0.165,16.18,106.13,14.97,16,54.94,0,110.5,13.32,15.77,103.8